Flag for U.S.A. Weather past 2 weeks in Allentown, Pennsylvania, U.S.A.

Now
74 °F

Sunny.


Feels Like: 77 °F
Forecast: 56 / 86 °F
Wind: 7 mph from Southwest

Location: Lehigh Valley International Airport

Current Time: May 24, 2015 at 9:39:44 PM

Latest Report: May 24, 2015 at 8:51 PM


Visibility: 10 mi

Pressure: 30.23 "Hg

Humidity: 29%

Dew point: 40 °F

Location of AllentownLocation

Historic Weather in Allentown — Graph

°F

Allentown temperature yesterday

Maximum temperature yesterday: 70 °F (at 4:51 PM)
Minimum temperature yesterday: 44 °F (at 5:51 AM)
Average temperature yesterday: 56 °F

Past Weeks' High & Low Weather Summary

 TemperatureHumidityPressure
High86 °F (May 10, 4:51 PM)97% (May 10, 6:51 AM)30.45 "Hg (May 10, 6:51 AM)
Low39 °F (May 24, 5:51 AM)18% (May 23, 6:51 PM)29.76 "Hg (May 19, 6:51 PM)
Average65 °F60%30.11 "Hg
* Reported May 9 7:51 PM — May 24 7:51 PM, Allentown, Weather by CustomWeather, © 2015

Note: Actual official high and low records may vary slightly from our data, if they occured in-between our weather recording intervals... More about our weather records

Advertising

Allentown weather history for previous 24 hours

 ConditionsComfort  
Time TempWeatherWind HumidityBarometerVisibility
7:51 PM
Sun, May 24
75 °FSunny.9 mph28%30.23 "Hg10 mi
6:51 PM79 °FSunny.9 mph25%30.22 "Hg10 mi
5:51 PM81 °FSunny.10 mph23%30.22 "Hg10 mi
4:51 PM81 °FSunny.12 mph21%30.24 "Hg10 mi
3:51 PM81 °FSunny.12 mph21%30.24 "Hg10 mi
2:51 PM81 °FSunny.14 mph23%30.27 "Hg10 mi
1:51 PM80 °FSunny.14 mph22%30.29 "Hg10 mi
12:51 PM79 °FSunny.8 mph22%30.31 "Hg10 mi
11:51 AM77 °FSunny.10 mph26%30.33 "Hg10 mi
10:51 AM73 °FSunny.7 mph38%30.34 "Hg10 mi
9:51 AM69 °FSunny.7 mph42%30.37 "Hg10 mi
8:51 AM61 °FSunny.6 mph52%30.39 "Hg10 mi
7:51 AM54 °FSunny.No wind62%30.38 "Hg10 mi
6:51 AM45 °FSunny.No wind80%30.37 "Hg10 mi
5:51 AM39 °FClear.No wind86%30.37 "Hg10 mi
4:51 AM40 °FClear.No wind80%30.36 "Hg10 mi
3:51 AM42 °FClear.No wind76%30.36 "Hg10 mi
2:51 AM43 °FClear.No wind76%30.37 "Hg10 mi
1:51 AM40 °FClear.No wind83%30.37 "Hg10 mi
12:51 AM46 °FClear.No wind66%30.37 "Hg10 mi
11:51 PM
Sat, May 23
49 °FClear.3 mph57%30.37 "Hg10 mi
10:51 PM51 °FClear.No wind50%30.36 "Hg10 mi
9:51 PM55 °FClear.5 mph42%30.35 "Hg10 mi
Weather by CustomWeather, © 2015

See weather overviewHow to use our weather pages